�������l�o���
Date,Time,MP-1(��Sv/h),MP-2(��Sv/h),MP-3(��Sv/h),MP-4(��Sv/h),MP-5(��Sv/h),MP-6(��Sv/h),MP-7(��Sv/h),MP-8(��Sv/h),����,����(m/s),���J
2022/07/21,00:00,0.597,0.850,0.544,1.020,0.725,0.343,0.593,0.561,�k��,1.2,��
2022/07/21,00:10,0.598,0.852,0.545,1.020,0.722,0.345,0.591,0.558,�k�k��,1.4,��
2022/07/21,00:20,0.598,0.851,0.545,1.020,0.726,0.344,0.592,0.558,�k��,1.5,��
2022/07/21,00:30,0.597,0.852,0.545,1.019,0.724,0.343,0.593,0.560,�k��,1.2,��
2022/07/21,00:40,0.598,0.851,0.545,1.020,0.722,0.345,0.592,0.559,-,CALM,��
2022/07/21,00:50,0.599,0.852,0.544,1.021,0.725,0.344,0.593,0.561,���k��,0.6,��
2022/07/21,01:00,0.598,0.852,0.544,1.021,0.724,0.345,0.593,0.559,���쓌,1.4,��
2022/07/21,01:10,0.598,0.852,0.545,1.021,0.726,0.343,0.593,0.560,���쓌,1.2,��
2022/07/21,01:20,0.597,0.853,0.545,1.019,0.725,0.343,0.593,0.560,���쓌,1.2,��
2022/07/21,01:30,0.599,0.852,0.546,1.020,0.726,0.343,0.593,0.557,�쓌,1.2,��
2022/07/21,01:40,0.601,0.853,0.546,1.019,0.725,0.344,0.591,0.559,��쓌,1.7,��
2022/07/21,01:50,0.597,0.850,0.546,1.019,0.723,0.344,0.593,0.559,�쓌,1.2,��
2022/07/21,02:00,0.596,0.853,0.544,1.021,0.723,0.343,0.594,0.559,��쓌,1.4,��
2022/07/21,02:10,0.596,0.850,0.546,1.023,0.725,0.343,0.593,0.560,�쓌,1.2,��
2022/07/21,02:20,0.598,0.849,0.544,1.020,0.726,0.344,0.594,0.560,��,1.4,��
2022/07/21,02:30,0.596,0.853,0.545,1.020,0.724,0.345,0.595,0.561,��,1.2,��
2022/07/21,02:40,0.598,0.852,0.544,1.020,0.723,0.345,0.594,0.559,��,1.4,��
2022/07/21,02:50,0.597,0.852,0.544,1.020,0.724,0.345,0.593,0.560,��쓌,1.4,��
2022/07/21,03:00,0.596,0.854,0.544,1.021,0.724,0.343,0.592,0.559,��,1.7,��
2022/07/21,03:10,0.597,0.852,0.544,1.021,0.725,0.343,0.594,0.558,��,1.2,��
2022/07/21,03:20,0.599,0.850,0.545,1.021,0.723,0.345,0.594,0.559,�쓌,1.5,��
2022/07/21,03:30,0.598,0.853,0.546,1.018,0.726,0.343,0.593,0.558,�쓌,1.7,��
2022/07/21,03:40,0.597,0.852,0.546,1.021,0.725,0.344,0.593,0.557,��쓌,2.3,��
2022/07/21,03:50,0.598,0.854,0.544,1.020,0.726,0.343,0.595,0.559,��쓌,2.6,��
2022/07/21,04:00,0.597,0.853,0.546,1.020,0.725,0.345,0.594,0.560,��쓌,1.7,��
2022/07/21,04:10,0.595,0.853,0.544,1.022,0.723,0.344,0.593,0.559,��쓌,2.3,��
2022/07/21,04:20,0.598,0.852,0.545,1.020,0.722,0.344,0.595,0.559,��쓌,2.6,��
2022/07/21,04:30,0.597,0.852,0.546,1.018,0.723,0.343,0.594,0.560,��,2.8,��
2022/07/21,04:40,0.597,0.851,0.544,1.019,0.723,0.343,0.594,0.559,��,2.8,��
2022/07/21,04:50,0.597,0.853,0.546,1.022,0.723,0.343,0.594,0.558,��,3.6,��
2022/07/21,05:00,0.597,0.852,0.546,1.019,0.724,0.344,0.595,0.562,��,3.3,��
2022/07/21,05:10,0.598,0.854,0.544,1.022,0.725,0.342,0.595,0.559,��,3.6,��
2022/07/21,05:20,0.596,0.853,0.545,1.019,0.723,0.344,0.594,0.560,��,3.6,��
2022/07/21,05:30,0.597,0.853,0.545,1.019,0.722,0.342,0.595,0.559,��,3.7,��
2022/07/21,05:40,0.595,0.853,0.545,1.020,0.726,0.343,0.595,0.560,��,4.4,��
2022/07/21,05:50,0.598,0.852,0.545,1.020,0.722,0.344,0.595,0.558,��,3.6,��
2022/07/21,06:00,0.597,0.852,0.544,1.020,0.725,0.343,0.594,0.560,��,3.5,��
2022/07/21,06:10,0.597,0.854,0.544,1.019,0.722,0.342,0.594,0.559,��,4.0,��
2022/07/21,06:20,0.597,0.854,0.546,1.020,0.724,0.343,0.595,0.561,��,3.8,��
2022/07/21,06:30,0.597,0.852,0.545,1.022,0.722,0.344,0.595,0.560,��,3.5,��
2022/07/21,06:40,0.597,0.853,0.545,1.020,0.724,0.344,0.594,0.559,��,2.2,��
2022/07/21,06:50,0.596,0.853,0.544,1.021,0.725,0.344,0.595,0.560,��쓌,2.2,��
2022/07/21,07:00,0.595,0.853,0.545,1.021,0.724,0.342,0.594,0.560,��쓌,1.9,��
2022/07/21,07:10,0.597,0.853,0.546,1.019,0.725,0.343,0.594,0.559,��쓌,1.7,��
2022/07/21,07:20,0.597,0.853,0.545,1.019,0.724,0.341,0.594,0.560,��,1.4,��
2022/07/21,07:30,0.598,0.852,0.544,1.022,0.723,0.343,0.594,0.560,��쓌,2.3,��
2022/07/21,07:40,0.597,0.850,0.545,1.019,0.725,0.344,0.594,0.559,��쓌,1.9,��
2022/07/21,07:50,0.595,0.852,0.544,1.019,0.726,0.343,0.594,0.560,��쓌,2.2,��
2022/07/21,08:00,0.598,0.853,0.542,1.020,0.724,0.345,0.595,0.558,��쓌,3.3,��
2022/07/21,08:10,0.596,0.850,0.540,1.019,0.725,0.343,0.595,0.558,��쓌,2.3,��
2022/07/21,08:20,0.598,0.846,0.542,1.019,0.726,0.344,0.595,0.560,��쓌,2.6,��
2022/07/21,08:30,0.596,0.849,0.541,1.020,0.726,0.343,0.595,0.559,��쓌,1.5,��
2022/07/21,08:40,0.599,0.848,0.541,1.023,0.725,0.342,0.595,0.559,��쓌,1.7,��
2022/07/21,08:50,0.598,0.849,0.541,1.022,0.725,0.343,0.595,0.560,��쓌,2.2,��
2022/07/21,09:00,0.598,0.849,0.540,1.020,0.726,0.344,0.595,0.560,��쓌,2.2,��
2022/07/21,09:10,0.599,0.849,0.542,1.021,0.726,0.344,0.594,0.560,��,1.7,��
2022/07/21,09:20,0.600,0.850,0.541,1.021,0.726,0.344,0.596,0.560,��쓌,2.5,��
2022/07/21,09:30,0.599,0.850,0.543,1.023,0.724,0.343,0.593,0.561,��쓌,1.7,��
2022/07/21,09:40,0.599,0.851,0.540,1.021,0.724,0.345,0.596,0.559,��쓌,1.7,��
2022/07/21,09:50,0.598,0.851,0.541,1.021,0.723,0.345,0.595,0.559,��쓌,3.1,��
2022/07/21,10:00,0.600,0.850,0.542,1.022,0.726,0.344,0.596,0.561,��,4.1,��
2022/07/21,10:10,0.601,0.848,0.542,1.022,0.725,0.346,0.594,0.558,��쓌,4.2,��
2022/07/21,10:20,0.599,0.851,0.541,1.022,0.725,0.344,0.595,0.560,��쓌,4.6,��
2022/07/21,10:30,0.600,0.849,0.542,1.024,0.726,0.347,0.595,0.558,��,3.9,��
2022/07/21,10:40,0.600,0.848,0.542,1.021,0.727,0.345,0.594,0.560,��,3.4,��
2022/07/21,10:50,0.600,0.852,0.543,1.023,0.726,0.346,0.595,0.557,��,3.9,��
2022/07/21,11:00,0.600,0.852,0.544,1.025,0.725,0.345,0.595,0.559,��,4.6,��
2022/07/21,11:10,0.599,0.850,0.542,1.023,0.726,0.345,0.594,0.559,��,4.9,��
2022/07/21,11:20,0.599,0.852,0.541,1.023,0.726,0.344,0.595,0.559,��,5.1,��
2022/07/21,11:30,0.601,0.855,0.542,1.023,0.726,0.344,0.594,0.559,��쓌,5.5,��
2022/07/21,11:40,0.600,0.852,0.543,1.024,0.725,0.344,0.595,0.559,��쓌,6.8,�L
2022/07/21,11:50,0.600,0.853,0.542,1.022,0.724,0.346,0.595,0.559,��쓌,7.0,�L
2022/07/21,12:00,0.602,0.854,0.542,1.023,0.724,0.345,0.595,0.561,��,4.9,��
2022/07/21,12:10,0.602,0.853,0.540,1.023,0.723,0.345,0.594,0.560,��,5.2,��
2022/07/21,12:20,0.600,0.853,0.542,1.026,0.725,0.344,0.594,0.558,��쓌,5.6,��
2022/07/21,12:30,0.601,0.853,0.543,1.022,0.725,0.344,0.595,0.558,��,6.3,��
2022/07/21,12:40,0.602,0.855,0.543,1.023,0.725,0.343,0.593,0.559,��,5.7,��
2022/07/21,12:50,0.601,0.855,0.542,1.023,0.725,0.345,0.594,0.559,��,7.0,��
2022/07/21,13:00,0.603,0.855,0.543,1.024,0.727,0.343,0.594,0.558,��쓌,5.3,��
2022/07/21,13:10,0.603,0.853,0.542,1.024,0.726,0.343,0.594,0.558,��쓌,5.7,��
2022/07/21,13:20,0.603,0.854,0.543,1.023,0.726,0.343,0.593,0.558,��쓌,5.7,��
2022/07/21,13:30,0.602,0.852,0.542,1.021,0.725,0.343,0.594,0.559,��쓌,5.4,��
2022/07/21,13:40,0.604,0.853,0.543,1.022,0.726,0.344,0.595,0.559,��쓌,6.8,��
2022/07/21,13:50,0.604,0.854,0.544,1.022,0.727,0.345,0.594,0.559,��쓌,7.0,��
2022/07/21,14:00,0.604,0.854,0.545,1.024,0.727,0.343,0.593,0.558,��쓌,7.2,��
2022/07/21,14:10,0.603,0.855,0.543,1.024,0.727,0.344,0.594,0.559,��쓌,8.1,��
2022/07/21,14:20,0.604,0.854,0.544,1.023,0.728,0.344,0.593,0.559,��쓌,6.8,��
2022/07/21,14:30,0.601,0.854,0.543,1.024,0.724,0.346,0.594,0.558,��쓌,7.1,��
2022/07/21,14:40,0.603,0.853,0.542,1.024,0.726,0.343,0.594,0.561,��쓌,6.9,��
2022/07/21,14:50,0.600,0.856,0.543,1.024,0.724,0.346,0.595,0.559,��,6.9,��
2022/07/21,15:00,0.603,0.853,0.543,1.021,0.726,0.345,0.593,0.559,��,7.8,��
2022/07/21,15:10,0.601,0.855,0.543,1.020,0.726,0.344,0.594,0.559,��쓌,6.2,��
2022/07/21,15:20,0.601,0.854,0.545,1.022,0.728,0.345,0.594,0.559,��쓌,8.2,��
2022/07/21,15:30,0.602,0.855,0.543,1.022,0.729,0.344,0.595,0.559,��,6.5,��
2022/07/21,15:40,0.602,0.853,0.544,1.027,0.729,0.344,0.595,0.559,��,7.0,��
2022/07/21,15:50,0.603,0.854,0.545,1.024,0.730,0.346,0.593,0.558,��,5.7,��
2022/07/21,16:00,0.603,0.856,0.544,1.024,0.729,0.347,0.593,0.559,��,5.7,��
2022/07/21,16:10,0.600,0.856,0.544,1.027,0.728,0.348,0.594,0.561,��,6.2,��
2022/07/21,16:20,0.600,0.858,0.545,1.025,0.729,0.346,0.594,0.558,��,6.4,��
2022/07/21,16:30,0.602,0.858,0.546,1.024,0.726,0.349,0.595,0.559,��,7.3,��
2022/07/21,16:40,0.602,0.858,0.545,1.026,0.729,0.348,0.596,0.559,��,7.2,��
2022/07/21,16:50,0.599,0.858,0.543,1.026,0.729,0.348,0.594,0.560,��,7.5,��
2022/07/21,17:00,0.600,0.858,0.545,1.027,0.727,0.346,0.596,0.562,��,9.1,��
2022/07/21,17:10,0.604,0.860,0.543,1.026,0.729,0.347,0.596,0.559,��,8.2,��
2022/07/21,17:20,0.602,0.860,0.546,1.023,0.729,0.347,0.597,0.562,��,8.7,��
2022/07/21,17:30,0.603,0.858,0.544,1.025,0.728,0.346,0.596,0.560,��,8.7,��
2022/07/21,17:40,0.602,0.858,0.545,1.026,0.731,0.345,0.595,0.561,��,7.5,��
2022/07/21,17:50,0.602,0.859,0.546,1.025,0.730,0.346,0.596,0.561,��,8.5,��
2022/07/21,18:00,0.602,0.860,0.545,1.025,0.730,0.346,0.594,0.560,��,8.4,��
2022/07/21,18:10,0.604,0.861,0.546,1.026,0.728,0.346,0.595,0.561,��,9.3,�L
2022/07/21,18:20,0.601,0.859,0.545,1.025,0.729,0.346,0.595,0.562,��,10.6,��
2022/07/21,18:30,0.600,0.859,0.545,1.028,0.727,0.346,0.594,0.562,��,9.6,��
2022/07/21,18:40,0.601,0.860,0.545,1.027,0.730,0.345,0.595,0.560,��,8.1,��
2022/07/21,18:50,0.602,0.858,0.546,1.025,0.730,0.347,0.594,0.559,��,9.4,�L
2022/07/21,19:00,0.601,0.859,0.544,1.026,0.730,0.345,0.593,0.561,��,9.2,�L
2022/07/21,19:10,0.603,0.860,0.546,1.028,0.729,0.346,0.595,0.561,��쐼,8.8,�L
2022/07/21,19:20,0.602,0.860,0.546,1.026,0.729,0.346,0.596,0.561,��쐼,8.6,��
2022/07/21,19:30,0.602,0.860,0.545,1.026,0.730,0.347,0.596,0.561,��쐼,9.4,�L
2022/07/21,19:40,0.601,0.859,0.546,1.026,0.730,0.346,0.594,0.562,��,8.4,�L
2022/07/21,19:50,0.601,0.859,0.545,1.028,0.731,0.347,0.596,0.560,��쐼,7.7,��
2022/07/21,20:00,0.602,0.858,0.545,1.028,0.728,0.346,0.597,0.562,��,7.3,��
2022/07/21,20:10,0.602,0.859,0.545,1.027,0.729,0.347,0.596,0.562,��,7.2,��
2022/07/21,20:20,0.601,0.858,0.545,1.027,0.728,0.346,0.595,0.561,��,7.1,��
2022/07/21,20:30,0.601,0.860,0.546,1.026,0.729,0.346,0.597,0.561,��,8.1,��
2022/07/21,20:40,0.602,0.858,0.546,1.027,0.730,0.348,0.597,0.561,��,8.0,��
2022/07/21,20:50,0.600,0.858,0.545,1.028,0.729,0.346,0.596,0.563,��,7.5,��
2022/07/21,21:00,0.602,0.860,0.545,1.026,0.732,0.346,0.595,0.562,��,7.5,��
2022/07/21,21:10,0.602,0.861,0.545,1.025,0.731,0.347,0.597,0.561,��,7.3,��
2022/07/21,21:20,0.601,0.860,0.546,1.028,0.730,0.346,0.596,0.562,��,7.8,��
2022/07/21,21:30,0.603,0.859,0.544,1.027,0.728,0.346,0.595,0.560,��,6.7,��
2022/07/21,21:40,0.600,0.860,0.546,1.026,0.731,0.346,0.595,0.561,��,7.4,��
2022/07/21,21:50,0.601,0.859,0.544,1.028,0.730,0.345,0.595,0.562,��,6.8,��
2022/07/21,22:00,0.599,0.859,0.545,1.029,0.730,0.345,0.596,0.561,��,6.8,��
2022/07/21,22:10,0.602,0.859,0.546,1.030,0.730,0.346,0.595,0.562,��,6.2,��
2022/07/21,22:20,0.600,0.857,0.545,1.026,0.730,0.345,0.596,0.561,��,6.8,��
2022/07/21,22:30,0.601,0.859,0.545,1.027,0.730,0.346,0.596,0.561,��,6.2,�L
2022/07/21,22:40,0.600,0.858,0.546,1.026,0.730,0.344,0.597,0.562,��쐼,6.3,�L
2022/07/21,22:50,0.603,0.858,0.545,1.029,0.731,0.345,0.595,0.563,��쐼,4.7,�L
2022/07/21,23:00,0.603,0.860,0.546,1.026,0.731,0.345,0.596,0.560,��,3.7,��
2022/07/21,23:10,0.603,0.858,0.545,1.026,0.729,0.346,0.597,0.561,��,3.4,��
2022/07/21,23:20,0.601,0.859,0.546,1.027,0.731,0.347,0.596,0.561,��쓌,3.9,��
2022/07/21,23:30,0.601,0.859,0.545,1.030,0.731,0.346,0.595,0.562,��,3.4,��
2022/07/21,23:40,0.600,0.861,0.546,1.027,0.729,0.345,0.596,0.562,��,4.3,��
2022/07/21,23:50,0.601,0.858,0.545,1.027,0.731,0.347,0.595,0.560,��,4.9,��
